This is the latest recevied weather packets stored in our database for station/object KC4JIR. If no packets are shown the sender has not sent any weather packets the latest 10 day(s).
| Time | Temp. | Humidity | Pressure | Rain* | Wind** | Luminosity | Snow |
|---|---|---|---|---|---|---|---|
| 1788533855 | 28.89° C | 84% | 1014.9 hPa | 0 mm | - | 885 W/m² | - |
| 1788533551 | 28.33° C | 87% | 1014.7 hPa | 0 mm | - | 786 W/m² | - |
| 1788533246 | 27.78° C | 90% | 1014.7 hPa | 0 mm | - | 758 W/m² | - |
| 1788532942 | 27.22° C | 93% | 1014.9 hPa | 0 mm | - | 612 W/m² | - |
| 1788532637 | 27.22° C | 94% | 1014.7 hPa | 0 mm | - | 55 W/m² | - |
| 1788532334 | 26.67° C | 95% | 1014.6 hPa | 0 mm | - | 573 W/m² | - |
| 1788532030 | 26.67° C | 95% | 1014.6 hPa | 0 mm | - | 141 W/m² | - |
| 1788531726 | 26.67° C | 96% | 1014.7 hPa | 0 mm | - | 175 W/m² | - |
| 1788531425 | 26.67° C | 96% | 1014.7 hPa | 0 mm | - | 222 W/m² | - |
| 1788531121 | 26.67° C | 96% | 1014.7 hPa | 0 mm | - | 297 W/m² | - |
| 1788530816 | 26.67° C | 96% | 1014.5 hPa | 0 mm | - | 145 W/m² | - |
| 1788530511 | 26.67° C | 96% | 1014.6 hPa | 0 mm | - | 212 W/m² | - |
| 1788530210 | 26.67° C | 97% | 1014.6 hPa | 0 mm | - | 171 W/m² | - |
| 1788529906 | 26.11° C | 98% | 1014.6 hPa | 0 mm | - | 157 W/m² | - |
| 1788529602 | 26.11° C | 98% | 1014.5 hPa | 0 mm | - | 137 W/m² | - |
| 1788529301 | 26.11° C | 98% | 1014.7 hPa | 0 mm | - | 148 W/m² | - |
| 1788528996 | 26.11° C | 99% | 1014.7 hPa | 0 mm | - | 126 W/m² | - |
| 1788528692 | 25.56° C | 99% | 1014.5 hPa | 0 mm | - | 128 W/m² | - |
| 1788528391 | 25.56° C | 99% | 1014.4 hPa | 0 mm | - | 123 W/m² | - |
| 1788528086 | 25.56° C | 99% | 1014.5 hPa | 0 mm | - | 111 W/m² | - |
| 1788527786 | 25.56° C | 99% | 1014.2 hPa | 0 mm | - | 97 W/m² | - |
| 1788527482 | 25.56° C | 99% | 1014.6 hPa | 0 mm | - | 80 W/m² | - |
| 1788527181 | 25.56° C | 99% | 1014.7 hPa | 0 mm | - | 85 W/m² | - |
| 1788526876 | 25° C | 99% | 1014.5 hPa | 0 mm | - | 93 W/m² | - |
| 1788526573 | 25° C | 99% | 1014.5 hPa | 0 mm | - | 109 W/m² | - |
* Rain latest hour (hover to see other rain measurements)
** Current wind speed in m/s (hover to see current wind gust speed)